WGS F4 (USA 233)        
1 38070U 12003A   19261.43182267 -.00000219  00000-0  00000+0 0  9998
2 38070   0.0182 175.0584 0000554  10.1848  55.6971  1.00272598 28015
DELTA 4 R/B             
1 38071U 12003B   19261.04842308 -.00000250  00000-0 -13201-2 0  9991
2 38071  19.9217 170.4198 8238115 309.7296   3.4349  1.15933734 32301